Rechercher aéroport 
image banner adimage banner adimage banner ad
image banner ad

4CL7 - Inyo County Sheriff Search&Rescue

Situé à Bishop, United States

ICAO - 4CL7, IATA -

Données fournies par Airmate  

Information générale

Coordonnées: N37°21'56" W118°22'3"
Élévation : 4120 feet MSL.
Variation magnétique : 15° East
Voir autres Aéroports à California

Données opérationnelles

Special qualification required
Heure actuelle UTC:
Heure actuelle locale:
Météo à : KBIH - Bishop ( 1 km )
METAR: KBIH 191156Z AUTO 28006KT 10SM CLR M01/M08 A3004 RMK AO2 SLP159 T10061083 10078 21028 53005
TAF: KBIH 191120Z 1912/2012 VRB05KT P6SM SKC FM192000 17010KT P6SM SCT200 FM200600 34006KT P6SM BKN200
Voir NOTAMs / SUP AIP / TFR affectant cet aéroport [VIEW]
Fréquences de communication: [VIEW]

Pistes:

Coordonnées de l'aéroport

Adresse: Bishop United States

Vue satellite de 4CL7